User: anonymous   Login
Location: Bishausen
(51.6334°N, 9.9631°E)
Time: 21:49:18
(UTC+00:00)
Language:

Cosmos 1140 Rocket - Orbit

View from above orbital plane
View from above orbital plane
View from above satellite
View from above satellite

Ground track
Ground track

The orbit data is extracted from the following two-line orbital elements,

1 11574U 79089B   24205.49275742  .00000857  00000-0  27112-3 0  9990
2 11574  74.0695 110.4057 0014605  74.1093 286.1672 14.41602748350455
Epoch (UTC): 23 July 2024 11:49:34
Eccentricity: 0.0014605
inclination: 74.0695°
perigee height: 743 km
apogee height: 763 km
right ascension of ascending node: 110.4057°
argument of perigee: 74.1093°
revolutions per day: 14.41602748
mean anomaly at epoch: 286.1672°
orbit number at epoch: 35045

The dashed part of the orbit path shows where the satellite is in the earth's shadow,  

DLR